Flag for Moldova Weather past 2 weeks in Cahul, Moldova

Now
79 °F

Partly sunny.


Feels Like: 80 °F
Forecast: 70 / 83 °F
Wind: 2 mph from North

Location: Galati

Current Time: Sep 2, 2014 at 12:29:31 PM

Latest Report: Sep 2, 2014 at 12:00 PM


Visibility: 13 mi

Pressure: 29.86 "Hg

Humidity: 46%

Dew point: 57 °F

Location of CahulLocation

Historic Weather in Cahul — Graph

°F

Cahul temperature yesterday

Maximum temperature yesterday: 84 °F (at 4:00 PM)
Minimum temperature yesterday: 59 °F (at 7:00 AM)
Average temperature yesterday: 71 °F

Past Weeks' High & Low Weather Summary

 TemperatureHumidityPressure
High89 °F (Aug 21, 5:00 PM)100% (Aug 24, 10:00 AM)30.19 "Hg (Aug 24, 10:00 AM)
Low55 °F (Aug 30, 7:00 AM)26% (Aug 29, 5:00 PM)29.70 "Hg (Aug 27, 7:00 PM)
Average71 °F62%29.99 "Hg
* Reported Aug 18 11:00 AM — Sep 2 11:00 AM, Cahul, Weather by CustomWeather, © 2014

Note: Actual official high and low records may vary slightly from our data, if they occured in-between our weather recording intervals... More about our weather records

Advertising

Cahul weather history for previous 24 hours

 ConditionsComfort  
Time TempWeatherWind HumidityBarometerVisibility
11:00 AM
Sep 2
74 °FPartly sunny.2 mph52%29.85 "Hg12 mi
10:00 AM68 °FOvercast.3 mph58%29.85 "Hg12 mi
9:00 AM65 °FPassing clouds.3 mph59%29.84 "Hg12 mi
8:00 AM63 °FScattered clouds.3 mph61%29.85 "Hg12 mi
7:00 AM62 °FScattered clouds.3 mph63%29.83 "Hg12 mi
6:00 AM61 °FPassing clouds.3 mph67%29.82 "Hg12 mi
5:00 AM62 °FPassing clouds.3 mph65%29.83 "Hg12 mi
4:00 AM64 °FClear.2 mph61%29.83 "Hg12 mi
3:00 AM65 °FClear.2 mph63%29.85 "Hg12 mi
2:00 AM67 °FClear.1 mph71%29.85 "Hg12 mi
1:00 AM65 °FClear.1 mph79%29.86 "Hg12 mi
12:00 AM67 °FPassing clouds.No wind76%29.86 "Hg12 mi
11:00 PM
Sep 1
69 °FClear.1 mph65%29.86 "Hg12 mi
10:00 PM70 °FPassing clouds.1 mph69%29.86 "Hg12 mi
9:00 PM71 °FPassing clouds.No wind62%29.85 "Hg12 mi
8:00 PM74 °FPassing clouds.No wind51%29.84 "Hg12 mi
7:00 PM79 °FPartly sunny.2 mph39%29.84 "Hg12 mi
6:00 PM82 °FScattered clouds.2 mph34%29.85 "Hg12 mi
5:00 PM84 °FPassing clouds.2 mph29%29.86 "Hg12 mi
4:00 PM84 °FPassing clouds.2 mph28%29.86 "Hg12 mi
3:00 PM82 °FPassing clouds.2 mph28%29.88 "Hg12 mi
2:00 PM82 °FPassing clouds.2 mph30%29.88 "Hg12 mi
1:00 PM80 °FPassing clouds.2 mph36%29.90 "Hg12 mi
12:00 PM77 °FPassing clouds.2 mph51%29.91 "Hg12 mi
Weather by CustomWeather, © 2014

See weather overviewHow to use our weather pages